Location: Unspecified
(33.2407°S, 0.0000°E)
Time: 22:39:02
(UTC+00:00)

Envisat - Pass Details

Date: 24 May 2019
Orbit: 764 x 766 km, 98.1° (Epoch: 17 June)

Event Time Altitude Azimuth Distance (km) Brightness Sun altitude
Exits shadow 19:26:21 48° 339° (NNW) 997 3.6 -29.5°
Drops below altitude 10° 19:29:59 10° 344° (NNW) 2,303 5.7 -30.3°
Sets 19:32:16 0° 344° (NNW) 3,221 6.5 -30.7°
